, LA

(GMT )
Venice

Weather History for K1B7 - July, 2013

Change the Weather History Date:

Saturday, July 20, 2013

  Actual Average Record
Temperature  
Mean Temperature 81 °F -  
Max Temperature 84 °F - - ()
Min Temperature 78 °F - - ()
Cooling Degree Days 16    
Growing Degree Days 31 (Base 50)    
Moisture  
Dew Point 76 °F    
Average Humidity 81    
Maximum Humidity 94    
Minimum Humidity 70    
Precipitation  
Precipitation 0.00 in - - ()
Sea Level Pressure  
Sea Level Pressure 29.98 in    
Wind  
Wind Speed 7 mph (WSW)    
Max Wind Speed 18 mph    
Max Gust Speed 23 mph    
Visibility 10 miles    
Events Rain , Thunderstorm    
Averages and records for this station are not official NWS values.
T = Trace of Precipitation, MM = Missing Value Source: NWS Daily Summary

Daily Weather History Graph

Daily Weather History Graph

Search for Another Location

Airport or City:

Trip Planner

Search our weather history database for the weather conditions in past years. The results will help you decide how hot, cold, wet, or windy it might be!

Date:

Astronomy

Jul. 20, 2013 Rise Set
Actual Time 6:11 AM CDT 7:56 PM CDT
Civil Twilight 5:44 AM CDT 8:23 PM CDT
Nautical Twilight 5:12 AM CDT 8:54 PM CDT
Astronomical Twilight 4:39 AM CDT 9:28 PM CDT
Moon 6:01 PM CDT (7/20) 3:50 AM CDT (7/20)
Length of Visible Light 14h 38m
Length of Day
13h 45m
Waxing Gibbous, 94% of the Moon is Illuminated
Jul 20
Waxing Gibbous
Jul 22
Full
Jul 29
Last Quarter
Aug 6
New
Aug 14
First Quarter

Hourly Weather History & Observations

Time (CDT) Temp. Heat Index Dew Point Humidity Pressure Visibility Wind Dir Wind Speed Gust Speed Precip Events Conditions
4:50 AM - - - N/A% - 10.0 mi West 4.6 mph - N/A   Clear
5:33 AM 78.8 °F - 77.0 °F 94% 29.96 in 10.0 mi West 3.5 mph - N/A   Clear
6:23 AM 78.8 °F - 75.2 °F 89% 29.96 in 10.0 mi West 5.8 mph - N/A   Clear
6:56 AM 80.6 °F 87.1 °F 77.0 °F 89% 29.96 in 10.0 mi NW 3.5 mph - N/A   Scattered Clouds
7:47 AM 82.4 °F 92.4 °F 78.8 °F 89% 29.96 in 10.0 mi WNW 5.8 mph - N/A   Clear
8:22 AM 82.4 °F 90.9 °F 77.0 °F 84% 29.97 in 10.0 mi NW 5.8 mph - N/A   Clear
8:48 AM 84.2 °F 94.1 °F 77.0 °F 79% 29.98 in 10.0 mi NNW 3.5 mph - N/A   Partly Cloudy
9:46 AM 84.2 °F 94.1 °F 77.0 °F 79% 30.00 in 10.0 mi Variable 2.3 mph - N/A   Partly Cloudy
10:43 AM 84.2 °F 94.1 °F 77.0 °F 79% 30.01 in 10.0 mi NE 4.6 mph - N/A   Clear
11:50 AM 80.6 °F 86.2 °F 75.2 °F 84% 30.02 in 10.0 mi South 18.4 mph - N/A Rain , Thunderstorm Light Thunderstorms and Rain
12:21 PM 78.8 °F - 73.4 °F 83% 30.04 in 10.0 mi SSW 13.8 mph 23.0 mph N/A Rain Light Rain
12:26 PM 78.8 °F - 75.2 °F 89% 30.01 in 10.0 mi South 12.7 mph - N/A Thunderstorm Thunderstorm
12:54 PM 82.4 °F 87.2 °F 71.6 °F 70% 30.01 in 10.0 mi SSW 5.8 mph - N/A   Clear
1:26 PM 82.4 °F 89.5 °F 75.2 °F 79% 30.00 in 10.0 mi SSW 12.7 mph - N/A   Clear
1:57 PM 84.2 °F 94.1 °F 77.0 °F 79% 29.98 in 10.0 mi SW 9.2 mph - N/A   Scattered Clouds
2:06 PM 84.2 °F 94.1 °F 77.0 °F 79% 29.97 in 10.0 mi SW 9.2 mph - N/A   Mostly Cloudy
3:07 PM 84.2 °F 92.3 °F 75.2 °F 74% 29.97 in 10.0 mi WSW 13.8 mph - N/A   Scattered Clouds
3:45 PM 84.2 °F 92.3 °F 75.2 °F 74% 29.97 in 10.0 mi SSW 13.8 mph - N/A   Mostly Cloudy
4:37 PM 84.2 °F 92.3 °F 75.2 °F 74% 29.97 in 10.0 mi SSW 15.0 mph - N/A   Mostly Cloudy
5:21 PM 84.2 °F 92.3 °F 75.2 °F 74% 29.95 in 10.0 mi SW 6.9 mph - N/A   Clear